| time (UTC) | temp F | wind direction | speed knots | gust knots | rain 1hr in | rain 24hr in | rain mn in | humidity % | barometer mb |
| 20260905224516 | 94 | 340 | 3.5 | 6.1 | 0.00 | 0.00 | 0.00 | 54 | 1011.6 |
| 20260905223015 | 95 | 320 | 2.6 | 7.0 | 0.00 | 0.00 | 0.00 | 52 | 1011.5 |
| 20260905221557 | 96 | 311 | 4.3 | 7.0 | 0.00 | 0.00 | 0.00 | 51 | 1011.6 |
| 20260905220059 | 96 | 355 | 2.6 | 6.1 | 0.00 | 0.00 | 0.00 | 51 | 1011.6 |
| 20260905214538 | 96 | 319 | 1.7 | 7.0 | 0.00 | 0.00 | 0.00 | 51 | 1011.7 |
| 20260905213040 | 96 | 313 | 2.6 | 6.1 | 0.00 | 0.00 | 0.00 | 49 | 1011.8 |
| 20260905211520 | 96 | 300 | 0.9 | 5.2 | 0.00 | 0.00 | 0.00 | 47 | 1011.7 |
| 20260905210017 | 96 | 330 | 0.0 | 4.3 | 0.00 | 0.00 | 0.00 | 45 | 1012.0 |
| 20260905204603 | 95 | 303 | 1.7 | 5.2 | 0.00 | 0.00 | 0.00 | 47 | 1012.3 |
| 20260905203057 | 93 | 277 | 0.9 | 4.3 | 0.00 | 0.00 | 0.00 | 47 | 1012.4 |
| 20260905201539 | 89 | 260 | 1.7 | 7.0 | 0.00 | 0.00 | 0.00 | 55 | 1012.7 |
| 20260905200041 | 88 | 276 | 0.9 | 6.1 | 0.00 | 0.00 | 0.00 | 59 | 1012.9 |
| 20260905194520 | 93 | 311 | 2.6 | 8.7 | 0.00 | 0.00 | 0.00 | 55 | 1012.7 |
| 20260905193020 | 95 | 298 | 5.2 | 8.7 | 0.00 | 0.00 | 0.00 | 51 | 1012.7 |
| 20260905191502 | 96 | 319 | 2.6 | 6.1 | 0.00 | 0.00 | 0.00 | 48 | 1012.7 |
| 20260905190001 | 99 | 268 | 2.6 | 7.0 | 0.00 | 0.00 | 0.00 | 43 | 1012.8 |
| 20260905184559 | 99 | 290 | 0.0 | 5.2 | 0.00 | 0.00 | 0.00 | 45 | 1012.8 |
| 20260905183046 | 98 | 335 | 2.6 | 6.1 | 0.00 | 0.00 | 0.00 | 46 | 1013.0 |
| 20260905181522 | 97 | 325 | 1.7 | 7.0 | 0.00 | 0.00 | 0.00 | 47 | 1013.0 |
| 20260905180021 | 96 | 292 | 0.9 | 5.2 | 0.00 | 0.00 | 0.00 | 47 | 1013.3 |
| 20260905174559 | 98 | 316 | 0.9 | 7.0 | 0.00 | 0.00 | 0.00 | 47 | 1013.4 |
| 20260905173110 | 98 | 319 | 0.9 | 7.0 | 0.00 | 0.00 | 0.00 | 47 | 1013.4 |
| 20260905171541 | 97 | 314 | 0.0 | 6.1 | 0.00 | 0.00 | 0.00 | 47 | 1013.6 |
| 20260905170039 | 97 | 341 | 2.6 | 7.0 | 0.00 | 0.00 | 0.00 | 47 | 1013.9 |
| 20260905164519 | 97 | 317 | 2.6 | 5.2 | 0.00 | 0.00 | 0.00 | 47 | 1014.0 |
| 20260905163018 | 97 | 282 | 0.0 | 3.5 | 0.00 | 0.00 | 0.00 | 49 | 1014.1 |
| 20260905161557 | 96 | 310 | 0.0 | 3.5 | 0.00 | 0.00 | 0.00 | 50 | 1014.1 |
| 20260905160055 | 96 | 329 | 0.9 | 4.3 | 0.00 | 0.00 | 0.00 | 51 | 1014.1 |
| 20260905154554 | 95 | 335 | 1.7 | 5.2 | 0.00 | 0.00 | 0.00 | 53 | 1014.3 |
| 20260905153034 | 94 | 329 | 0.0 | 4.3 | 0.00 | 0.00 | 0.00 | 54 | 1014.3 |
| 20260905151514 | 94 | 320 | 0.9 | 4.3 | 0.00 | 0.00 | 0.00 | 56 | 1014.4 |
| 20260905150013 | 93 | 316 | 2.6 | 5.2 | 0.00 | 0.00 | 0.00 | 57 | 1014.3 |
| 20260905144553 | 92 | 330 | 1.7 | 3.5 | 0.00 | 0.00 | 0.00 | 60 | 1014.3 |
| 20260905143050 | 91 | 314 | 0.0 | 3.5 | 0.00 | 0.00 | 0.00 | 63 | 1014.3 |
| 20260905141530 | 90 | 339 | 0.0 | 4.3 | 0.00 | 0.00 | 0.00 | 65 | 1014.4 |
| 20260905140026 | 88 | 300 | 0.0 | 2.6 | 0.00 | 0.00 | 0.00 | 68 | 1014.6 |
| 20260905134508 | 86 | 240 | 0.0 | 0.0 | 0.00 | 0.00 | 0.00 | 71 | 1014.6 |
| 20260905133007 | 84 | 240 | 0.0 | 0.0 | 0.00 | 0.00 | 0.00 | 75 | 1014.6 |
| 20260905131606 | 82 | 240 | 0.0 | 1.7 | 0.00 | 0.00 | 0.00 | 80 | 1014.6 |
| 20260905130057 | 80 | 224 | 0.0 | 0.0 | 0.00 | 0.00 | 0.00 | 86 | 1014.6 |
| 20260905124554 | 76 | 224 | 0.0 | 0.0 | 0.00 | 0.00 | 0.00 | 95 | 1014.6 |
| 20260905123057 | 74 | 224 | 0.0 | 0.0 | 0.00 | 0.00 | 0.00 | 95 | 1014.6 |
| 20260905121555 | 73 | 224 | 0.0 | 0.0 | 0.00 | 0.00 | 0.00 | 95 | 1014.6 |
| 20260905120050 | 73 | 224 | 0.0 | 0.0 | 0.00 | 0.00 | 0.00 | 94 | 1014.5 |
| 20260905114549 | 73 | 224 | 0.0 | 0.0 | 0.00 | 0.00 | 0.00 | 95 | 1014.4 |
| 20260905113044 | 73 | 224 | 0.0 | 0.0 | 0.00 | 0.00 | 0.00 | 95 | 1014.3 |
| 20260905111546 | 71 | 224 | 0.0 | 0.0 | 0.00 | 0.00 | 0.00 | 94 | 1014.2 |
| 20260905110029 | 72 | 224 | 0.0 | 0.0 | 0.00 | 0.00 | 0.00 | 94 | 1014.0 |
| 20260905104509 | 72 | 224 | 0.0 | 0.0 | 0.00 | 0.00 | 0.00 | 94 | 1014.1 |
| 20260905103051 | 72 | 224 | 0.0 | 0.0 | 0.00 | 0.00 | 0.00 | 94 | 1014.2 |
| 20260905101559 | 73 | 224 | 0.0 | 0.0 | 0.00 | 0.00 | 0.00 | 94 | 1014.1 |
| 20260905100036 | 73 | 224 | 0.0 | 0.0 | 0.00 | 0.00 | 0.00 | 93 | 1014.1 |
| 20260905094532 | 73 | 224 | 0.0 | 0.0 | 0.00 | 0.00 | 0.00 | 92 | 1014.0 |
| 20260905093015 | 73 | 224 | 0.0 | 0.0 | 0.00 | 0.00 | 0.00 | 93 | 1013.9 |
| 20260905091515 | 73 | 224 | 0.0 | 0.0 | 0.00 | 0.00 | 0.00 | 93 | 1013.7 |
| 20260905090055 | 73 | 224 | 0.0 | 0.0 | 0.00 | 0.00 | 0.00 | 93 | 1013.7 |
| 20260905084602 | 73 | 224 | 0.0 | 0.0 | 0.00 | 0.00 | 0.00 | 93 | 1013.7 |
| 20260905083035 | 73 | 224 | 0.0 | 0.0 | 0.00 | 0.00 | 0.00 | 93 | 1013.6 |
| 20260905081535 | 73 | 224 | 0.0 | 0.0 | 0.00 | 0.00 | 0.00 | 92 | 1013.7 |
| 20260905080015 | 73 | 224 | 0.0 | 0.0 | 0.00 | 0.00 | 0.00 | 92 | 1013.9 |
| 20260905074519 | 74 | 224 | 0.0 | 0.0 | 0.00 | 0.00 | 0.00 | 92 | 1013.9 |
| 20260905073100 | 74 | 224 | 0.0 | 0.0 | 0.00 | 0.00 | 0.00 | 92 | 1014.0 |
| 20260905071558 | 74 | 224 | 0.0 | 0.0 | 0.00 | 0.00 | 0.00 | 91 | 1014.0 |
| 20260905070039 | 74 | 224 | 0.0 | 0.0 | 0.00 | 0.00 | 0.00 | 91 | 1013.9 |
| 20260905064538 | 74 | 224 | 0.0 | 0.0 | 0.00 | 0.00 | 0.00 | 92 | 1013.9 |
| 20260905063019 | 74 | 224 | 0.0 | 0.0 | 0.00 | 0.00 | 0.00 | 92 | 1014.0 |
| 20260905061520 | 74 | 224 | 0.0 | 0.0 | 0.00 | 0.00 | 0.00 | 93 | 1014.1 |
| 20260905060059 | 74 | 224 | 0.0 | 1.7 | 0.00 | 0.00 | 0.00 | 92 | 1014.3 |
| 20260905054559 | 74 | 224 | 0.0 | 0.0 | 0.00 | 0.00 | 0.00 | 92 | 1014.2 |
| 20260905053044 | 74 | 224 | 0.0 | 0.0 | 0.00 | 0.00 | 0.00 | 91 | 1014.2 |
| 20260905051544 | 74 | 225 | 0.0 | 0.0 | 0.00 | 0.00 | 0.00 | 91 | 1014.1 |
| 20260905050021 | 75 | 225 | 0.0 | 0.0 | 0.00 | 0.00 | 0.00 | 90 | 1014.2 |
| 20260905044520 | 75 | 225 | 0.0 | 0.0 | 0.00 | 0.00 | 0.00 | 89 | 1014.2 |
| 20260905043001 | 75 | 225 | 0.0 | 0.0 | 0.00 | 0.00 | 0.00 | 89 | 1014.3 |
| 20260905041605 | 75 | 225 | 0.0 | 0.0 | 0.00 | 0.00 | 0.00 | 88 | 1014.4 |
| 20260905040043 | 76 | 225 | 0.0 | 0.0 | 0.00 | 0.00 | 0.00 | 88 | 1014.4 |
| 20260905034548 | 76 | 225 | 0.0 | 0.0 | 0.00 | 0.00 | 0.00 | 88 | 1014.3 |
| 20260905033048 | 77 | 225 | 0.0 | 0.0 | 0.00 | 0.00 | 0.00 | 87 | 1014.3 |
| 20260905031518 | 77 | 225 | 0.0 | 0.0 | 0.00 | 0.00 | 0.00 | 87 | 1014.4 |
| 20260905030001 | 77 | 225 | 0.0 | 0.0 | 0.00 | 0.00 | 0.00 | 86 | 1014.4 |
| 20260905024558 | 78 | 225 | 0.0 | 0.0 | 0.00 | 0.00 | 0.00 | 83 | 1014.3 |
| 20260905023049 | 78 | 225 | 0.0 | 0.0 | 0.00 | 0.00 | 0.00 | 83 | 1014.1 |
| 20260905021538 | 79 | 225 | 0.0 | 0.0 | 0.00 | 0.00 | 0.00 | 82 | 1014.0 |
| 20260905020020 | 80 | 225 | 0.0 | 0.0 | 0.00 | 0.00 | 0.00 | 81 | 1014.0 |
| 20260905014520 | 81 | 225 | 0.0 | 0.0 | 0.00 | 0.00 | 0.00 | 79 | 1013.9 |
| 20260905013005 | 82 | 225 | 0.0 | 0.0 | 0.00 | 0.00 | 0.00 | 76 | 1013.6 |
| 20260905011501 | 83 | 225 | 0.0 | 0.0 | 0.00 | 0.00 | 0.00 | 72 | 1013.7 |
| 20260905010049 | 85 | 225 | 0.0 | 0.0 | 0.00 | 0.00 | 0.00 | 69 | 1013.6 |
| 20260905004543 | 87 | 225 | 0.0 | 0.0 | 0.00 | 0.00 | 0.00 | 66 | 1013.4 |
| 20260905003025 | 89 | 225 | 0.0 | 0.0 | 0.00 | 0.00 | 0.00 | 63 | 1013.3 |
| 20260905001526 | 92 | 225 | 0.0 | 0.0 | 0.00 | 0.00 | 0.00 | 61 | 1013.2 |
| 20260905000011 | 95 | 225 | 0.0 | 0.0 | 0.00 | 0.00 | 0.00 | 57 | 1013.2 |
| 20260904234508 | 97 | 225 | 0.0 | 0.0 | 0.00 | 0.00 | 0.00 | 54 | 1013.2 |
| 20260904233050 | 97 | 225 | 0.0 | 0.0 | 0.00 | 0.00 | 0.00 | 45 | 1013.1 |
| 20260904231549 | 96 | 225 | 0.0 | 1.7 | 0.00 | 0.00 | 0.00 | 45 | 1013.0 |
| 20260904230055 | 97 | 227 | 0.0 | 2.6 | 0.00 | 0.00 | 0.00 | 44 | 1013.0 |